Regional Weather Roundup
Issued by NWS Cleveland, OH

Home | Current Version | Previous Version | Graphics & Text | Print | Product List | Glossary On
Versions: 1 2 3 4 5 6 7 8 9 10 11 12 13 14 15 16 17 18 19 20 21 22 23 24 25 26 27 28 29 30 31 32 33 34 35 36 37 38 39 40 41 42 43 44 45 46 47 48 49 50
000
ASUS41 KCLE 262110
RWRCLE
OHIO REGIONAL WEATHER ROUNDUP
NATIONAL WEATHER SERVICE CLEVELAND, OH
500 PM EDT TUE MAY 26 2015

NOTE: "FAIR" INDICATES FEW OR NO CLOUDS BELOW 12,000 FEET WITH NO
SIGNIFICANT WEATHER AND/OR OBSTRUCTIONS TO VISIBILITY.

OHZ001>008-015>018-024>027-034-035-043-044-262200-
   NORTHWEST OHIO

CITY           SKY/WX    TMP DP  RH WIND       PRES   REMARKS
DEFIANCE       CLOUDY    79  64  60 S13       29.89S
FINDLAY        PTSUNNY   86  61  42 S23G35    29.91F
TOLEDO EXPRESS LGT RAIN  82  63  52 S9G21     29.88F
TOLEDO EXEC    PTSUNNY   87  60  40 S24       29.89F
LIMA           PTSUNNY   84  62  47 S18G25    29.92F
$$

OHZ009>014-019>023-028>033-038-089-262200-
   NORTHEAST OHIO

CITY           SKY/WX    TMP DP  RH WIND       PRES   REMARKS
CLE-HOPKINS    MOSUNNY   84  64  50 S17G24    30.00F
CLE-LAKEFRONT  MOSUNNY   85  62  46 S14G30    29.97F
CUY CO. ARPT   PTSUNNY   84  66  54 S17       30.01F
LORAIN-ELYRIA  MOSUNNY   84  63  49 S18       29.98F
ASHTABULA      MOSUNNY   81  63  54 S14       30.04F
AKRON-CANTON   PTSUNNY   83  63  50 S15       30.04F
WOOSTER        MOSUNNY   82  63  52 S17       30.03F
MANSFIELD      MOSUNNY   83  64  52 S18       30.00F
YOUNGSTOWN     PTSUNNY   80  63  55 S13G22    30.06F
$$

OHZ042-051>053-060>062-070>072-077>081-262200-
  SOUTHWEST OHIO

CITY           SKY/WX    TMP DP  RH WIND       PRES   REMARKS
CINC-COVINGTON TSTM      68  66  93 S12G25    30.02R FOG
CINC-LUNKEN    TSTM      69  67  93 W20G45    30.04R FOG
HAMILTON       TSTM      68  67  96 VRB6      30.03R FOG
DAYTON         PTSUNNY   74  69  85 S14       29.99F
WRIGHT-PAT AFB PTSUNNY   75  70  84 S16       29.99S THUNDER
DAYTON GENERAL CLOUDY    75  69  81 S10       29.99F
WILMINGTON     CLOUDY    81  68  64 S13G21    30.02S
$$

OHZ036-037-039>041-045>050-054>059-063>069-073>076-082>088-262200-
  CENTRAL AND SOUTHEAST OHIO

CITY           SKY/WX    TMP DP  RH WIND       PRES   REMARKS
COLUMBUS       PTSUNNY   79  68  69 S13G20    30.01R
OSU AIRPORT    MOSUNNY   81  64  56 S18G28    30.00S
BOLTON FIELD   NOT AVBL
RICKENBACK AFB PTSUNNY   78  69  75 S10       30.02S
NEWARK         TSTM      73  66  78 S5        30.03R
MARION         PTSUNNY   79  65  62 S21G31    29.98F
LANCASTER      PTSUNNY   79  68  69 S9        30.03F
ZANESVILLE     PTSUNNY   80  66  62 S12       30.05F
NEW PHILLY     LGT RAIN  84  66  54 S7        30.05F
$$


USA.gov is the U.S. government's official web portal to all federal, state and local government web resources and services.